RH
33 38 43 44 47 43 38 32 22 18 23 24 30 41 48 56 61 88 98 97 98 96 89 78 60 58 52 49 53 62 64 62 63 62 64 62 62 64 70 67 65 56 53
37 40 45 47 43 39 38 33 26 17 19 26 31 44 55 65 69 79 95 93 94 93 89 82 68 66 61 55 59 62 68 65 65 63 64 65 67 68 74 72 71 71 65
37 42 44 48 45 38 39 34 28 19 22 27 33 46 59 72 73 71 82 93 92 93 94 89 75 73 69 62 63 68 73 70 68 64 63 69 71 73 73 70 77 73 68
39 39 41 48 46 40 41 35 30 22 24 27 33 47 57 68 73 69 74 80 87 95 96 95 88 82 77 76 74 73 73 71 71 70 66 72 71 73 77 77 82 78 70
36 39 43 46 49 41 42 36 32 25 24 28 33 44 53 60 64 70 74 77 84 93 96 99 94 88 88 85 86 87 85 85 83 78 72 76 72 74 78 77 77 76 74
38 38 44 50 51 48 44 39 33 27 25 28 32 40 46 57 64 66 70 73 80 88 94 98 96 94 91 92 92 96 92 90 85 84 84 76 72 72 77 76 84 87 81
38 40 42 46 50 49 46 42 34 27 25 28 32 36 43 46 52 57 61 70 78 83 92 97 96 96 95 95 96 94 94 93 93 92 89 90 84 78 81 82 84 86 83
39 36 39 41 48 54 48 44 35 27 25 27 31 36 40 45 47 48 52 60 77 88 89 99 97 97 98 96 96 96 97 97 95 96 95 95 88 83 85 83 84 87 86
39 40 40 39 45 51 47 45 41 32 27 27 29 36 38 41 44 45 48 53 59 68 81 90 93 95 97 96 97 97 96 93 95 94 94 94 94 88 86 86 85 85 88
44 43 43 44 51 50 47 46 46 37 30 29 31 35 40 41 43 43 45 48 53 57 65 78 86 88 96 96 96 95 94 94 94 93 93 92 91 90 89 87 89 91 91
48 49 52 56 58 55 51 54 52 44 39 37 38 39 42 45 46 45 47 49 53 59 62 69 83 91 93 94 94 95 95 94 94 93 91 85 84 83 86 90 90 91 90
56 57 59 61 63 63 57 59 58 53 47 46 44 43 41 44 47 51 53 53 53 56 60 66 68 71 74 75 76 81 80 80 81 81 79 76 79 81 85 87 88 88 89
66 63 63 66 67 70 69 69 66 64 58 55 53 50 48 45 47 49 50 52 54 56 57 57 61 66 67 69 69 66 66 65 65 67 64 66 71 70 74 79 80 84 84
76 71 70 70 72 76 79 78 75 70 69 63 62 62 59 57 56 56 56 56 56 56 55 56 59 61 64 65 68 67 66 67 71 72 73 74 75 74 75 76 75 75 76
86 82 79 79 81 83 86 89 86 82 78 76 75 73 72 71 68 66 66 66 66 65 66 65 61 59 60 60 64 67 68 69 68 68 66 67 70 71 73 77 78 81 82
84 84 83 85 87 88 91 90 89 85 83 82 81 80 79 78 78 75 74 74 73 73 72 72 73 71 67 65 63 66 69 72 72 71 71 70 68 64 67 70 71 71 70
86 80 78 78 79 82 83 83 85 83 82 80 81 81 80 79 81 80 77 79 79 80 78 77 79 78 79 78 80 79 74 72 71 69 68 70 71 72 70 70 74 76 74
83 82 82 78 77 73 72 70 71 72 71 71 71 72 74 76 78 77 77 79 81 84 85 84 85 85 87 83 82 81 85 87 85 83 81 79 76 72 72 73 72 72 76
93 89 81 79 73 68 65 65 62 59 58 57 58 59 60 64 66 66 69 72 73 77 80 82 82 85 87 85 84 85 87 89 91 93 94 89 86 87 89 87 85 86 86
85 80 74 69 64 60 57 55 51 49 48 48 46 48 51 53 53 56 59 63 64 66 69 72 74 76 79 81 84 88 92 96 97 97 96 95 92 90 91 93 96 92 93
77 71 66 63 60 56 51 47 44 42 42 43 44 43 43 46 46 45 45 45 46 46 51 57 60 62 66 69 72 76 84 93 96 97 96 91 88 95 92 97 99 98 97
74 70 63 57 52 48 48 46 43 41 39 37 35 35 35 35 35 36 37 39 42 43 43 44 47 52 54 56 60 64 68 77 84 88 91 83 97 93 90 98 97 94 94
71 68 62 57 56 55 51 47 44 43 41 40 38 37 38 36 35 35 35 36 38 39 41 45 50 52 59 61 63 66 78 74 73 81 87 82 98 81 97 97 97 97 98
69 63 59 52 48 46 46 48 46 42 41 40 39 39 38 38 39 39 40 40 41 42 44 45 46 49 52 56 58 63 69 73 73 80 79 84 84 89 96 96 93 96 96
62 58 53 50 48 49 48 45 43 45 44 43 42 41 40 40 40 41 43 45 48 50 50 52 54 56 57 60 62 65 69 71 76 80 85 86 83 85 93 96 96 96 97
59 56 57 56 55 54 52 50 49 49 48 45 45 45 44 44 45 46 48 49 51 53 55 57 59 62 66 68 69 72 75 77 80 86 94 96 97 96 96 95 95 95 92